Radiation Dose at Monitoring Post of Fukushima Daini Nuclear Power Station
Date,Time,MP-1(microSv/h),MP-2(microSv/h),MP-3(microSv/h),MP-4(microSv/h),MP-5(microSv/h),MP-6(microSv/h),MP-7(microSv/h),Wind Direction,Wind Velocity(m/s),Rain
2019/12/08,00:00,0.183,0.166,0.279,0.261,0.254,0.141,0.086,west-northwest,7.4,No
2019/12/08,00:10,0.184,0.165,0.278,0.260,0.256,0.141,0.086,west-northwest,5.3,No
2019/12/08,00:20,0.182,0.165,0.279,0.260,0.255,0.140,0.086,west-northwest,3.2,No
2019/12/08,00:30,0.183,0.165,0.279,0.261,0.255,0.141,0.087,northwest,3.8,No
2019/12/08,00:40,0.183,0.166,0.279,0.260,0.255,0.141,0.087,northwest,4.3,No
2019/12/08,00:50,0.183,0.165,0.280,0.260,0.255,0.141,0.086,northwest,4.3,No
2019/12/08,01:00,0.183,0.165,0.278,0.260,0.253,0.141,0.086,west-northwest,3.7,No
2019/12/08,01:10,0.182,0.165,0.279,0.260,0.254,0.141,0.087,west-northwest,3.3,No
2019/12/08,01:20,0.182,0.166,0.279,0.260,0.255,0.141,0.087,west-northwest,3.8,No
2019/12/08,01:30,0.183,0.165,0.280,0.261,0.255,0.140,0.086,west,4.3,No
2019/12/08,01:40,0.183,0.165,0.280,0.262,0.255,0.141,0.087,west-northwest,4.7,No
2019/12/08,01:50,0.183,0.165,0.279,0.260,0.253,0.141,0.086,west-northwest,4.7,No
2019/12/08,02:00,0.183,0.166,0.279,0.260,0.254,0.140,0.087,west,4.0,No
2019/12/08,02:10,0.183,0.165,0.280,0.260,0.256,0.141,0.087,west-northwest,3.8,No
2019/12/08,02:20,0.182,0.165,0.280,0.259,0.256,0.140,0.086,west-northwest,4.7,No
2019/12/08,02:30,0.183,0.166,0.280,0.260,0.254,0.141,0.087,west-northwest,5.0,No
2019/12/08,02:40,0.183,0.165,0.279,0.260,0.254,0.141,0.087,west-northwest,4.9,No
2019/12/08,02:50,0.184,0.167,0.280,0.260,0.256,0.141,0.087,west-northwest,5.8,No
2019/12/08,03:00,0.183,0.165,0.280,0.261,0.256,0.140,0.087,west-northwest,6.3,No
2019/12/08,03:10,0.184,0.164,0.279,0.261,0.255,0.141,0.087,west-northwest,6.5,No
2019/12/08,03:20,0.184,0.165,0.279,0.261,0.255,0.141,0.087,west-northwest,5.5,No
2019/12/08,03:30,0.183,0.166,0.280,0.260,0.255,0.141,0.087,west-northwest,5.2,No
2019/12/08,03:40,0.184,0.166,0.279,0.261,0.255,0.141,0.087,west-northwest,5.2,No
2019/12/08,03:50,0.184,0.165,0.280,0.260,0.255,0.141,0.087,west-northwest,5.5,No
2019/12/08,04:00,0.183,0.165,0.280,0.259,0.254,0.140,0.087,west-northwest,5.7,No
2019/12/08,04:10,0.183,0.166,0.279,0.261,0.254,0.141,0.087,west-northwest,5.6,No
2019/12/08,04:20,0.183,0.166,0.279,0.261,0.256,0.141,0.087,west-northwest,5.1,No
2019/12/08,04:30,0.183,0.165,0.279,0.260,0.256,0.142,0.087,west-northwest,5.7,No
2019/12/08,04:40,0.182,0.165,0.279,0.260,0.254,0.141,0.087,west-northwest,5.7,No
2019/12/08,04:50,0.183,0.165,0.280,0.261,0.255,0.141,0.087,west-northwest,4.6,No
2019/12/08,05:00,0.183,0.167,0.280,0.260,0.256,0.141,0.087,west-northwest,4.4,No
2019/12/08,05:10,0.183,0.166,0.280,0.261,0.255,0.141,0.087,west-northwest,4.7,No
2019/12/08,05:20,0.184,0.166,0.279,0.260,0.256,0.141,0.086,west-northwest,4.4,No
2019/12/08,05:30,0.183,0.165,0.279,0.260,0.255,0.140,0.087,west-northwest,4.8,No
2019/12/08,05:40,0.184,0.166,0.279,0.260,0.256,0.141,0.087,west-northwest,4.8,No
2019/12/08,05:50,0.183,0.166,0.279,0.261,0.255,0.141,0.087,west-northwest,4.4,No
2019/12/08,06:00,0.182,0.165,0.281,0.260,0.256,0.142,0.088,west-northwest,4.5,No
2019/12/08,06:10,0.183,0.165,0.279,0.261,0.255,0.141,0.087,west-northwest,5.0,No
2019/12/08,06:20,0.183,0.165,0.280,0.261,0.254,0.141,0.087,west-northwest,4.9,No
2019/12/08,06:30,0.184,0.166,0.280,0.260,0.256,0.142,0.087,west-northwest,4.7,No
2019/12/08,06:40,0.184,0.166,0.280,0.261,0.255,0.141,0.087,west-northwest,5.1,No
2019/12/08,06:50,0.184,0.166,0.279,0.261,0.255,0.141,0.087,west-northwest,5.0,No
2019/12/08,07:00,0.182,0.166,0.280,0.260,0.254,0.142,0.087,west-northwest,5.0,No
2019/12/08,07:10,0.183,0.165,0.279,0.260,0.255,0.141,0.088,west-northwest,4.7,No
2019/12/08,07:20,0.184,0.165,0.279,0.261,0.255,0.141,0.087,west-northwest,4.4,No
2019/12/08,07:30,0.184,0.165,0.281,0.261,0.255,0.141,0.087,northwest,4.7,No
2019/12/08,07:40,0.184,0.165,0.279,0.260,0.256,0.141,0.087,west-northwest,4.6,No
2019/12/08,07:50,0.184,0.165,0.279,0.260,0.255,0.141,0.088,northwest,4.6,No
2019/12/08,08:00,0.184,0.166,0.279,0.259,0.255,0.142,0.087,northwest,3.6,No
2019/12/08,08:10,0.184,0.166,0.280,0.259,0.255,0.141,0.087,west-northwest,3.5,No
2019/12/08,08:20,0.184,0.165,0.280,0.260,0.255,0.141,0.087,northwest,3.5,No
2019/12/08,08:30,0.183,0.165,0.280,0.260,0.255,0.141,0.088,northwest,3.0,No
2019/12/08,08:40,0.182,0.166,0.280,0.261,0.255,0.141,0.087,northwest,3.8,No
2019/12/08,08:50,0.184,0.166,0.280,0.260,0.255,0.141,0.086,north-northwest,4.6,No
2019/12/08,09:00,0.184,0.165,0.280,0.260,0.255,0.142,0.088,northwest,2.4,No
2019/12/08,09:10,0.183,0.165,0.278,0.259,0.256,0.141,0.087,northwest,1.4,No
2019/12/08,09:20,0.184,0.166,0.279,0.260,0.256,0.141,0.087,west-northwest,2.1,No
2019/12/08,09:30,0.184,0.165,0.279,0.260,0.256,0.141,0.087,northwest,2.2,No
2019/12/08,09:40,0.184,0.165,0.279,0.259,0.255,0.141,0.088,northwest,1.4,No
2019/12/08,09:50,0.183,0.165,0.278,0.260,0.257,0.141,0.087,northwest,0.7,No
2019/12/08,10:00,0.184,0.165,0.279,0.261,0.256,0.140,0.087,northwest,1.3,No
2019/12/08,10:10,0.183,0.166,0.280,0.260,0.255,0.141,0.087,north-northwest,1.8,No
2019/12/08,10:20,0.183,0.165,0.279,0.260,0.256,0.141,0.087,northwest,2.0,No
2019/12/08,10:30,0.184,0.164,0.278,0.261,0.254,0.141,0.087,north-northwest,1.0,No
2019/12/08,10:40,0.184,0.164,0.279,0.259,0.256,0.141,0.086,northwest,1.2,No
2019/12/08,10:50,0.183,0.166,0.277,0.259,0.256,0.140,0.088,northwest,1.4,No
2019/12/08,11:00,0.183,0.166,0.279,0.261,0.254,0.140,0.087,northwest,0.9,No
2019/12/08,11:10,0.183,0.166,0.280,0.260,0.257,0.141,0.087,north,0.9,No
2019/12/08,11:20,0.182,0.166,0.279,0.261,0.257,0.141,0.088,-,CALM,No
2019/12/08,11:30,0.183,0.166,0.279,0.261,0.256,0.141,0.087,-,CALM,No
2019/12/08,11:40,0.184,0.165,0.280,0.261,0.256,0.141,0.087,-,CALM,No
2019/12/08,11:50,0.184,0.166,0.277,0.261,0.255,0.141,0.087,east,1.3,No
2019/12/08,12:00,0.184,0.165,0.280,0.261,0.256,0.141,0.087,east-southeast,1.5,No
2019/12/08,12:10,0.182,0.166,0.278,0.260,0.256,0.141,0.088,east,1.4,No
2019/12/08,12:20,0.183,0.165,0.279,0.262,0.254,0.141,0.087,east,1.1,No
2019/12/08,12:30,0.182,0.164,0.280,0.262,0.257,0.141,0.087,east-northeast,1.7,No
2019/12/08,12:40,0.184,0.166,0.277,0.260,0.256,0.141,0.086,east-northeast,1.3,No
2019/12/08,12:50,0.183,0.165,0.279,0.261,0.255,0.141,0.087,north-northeast,0.7,No
2019/12/08,13:00,0.183,0.165,0.279,0.261,0.255,0.141,0.086,northwest,2.7,No
2019/12/08,13:10,0.183,0.165,0.278,0.261,0.255,0.141,0.086,north-northwest,1.5,No
2019/12/08,13:20,0.183,0.165,0.278,0.259,0.256,0.141,0.087,west-northwest,4.0,No
2019/12/08,13:30,0.183,0.165,0.279,0.258,0.254,0.140,0.087,west-northwest,4.2,No
2019/12/08,13:40,0.182,0.165,0.279,0.260,0.256,0.142,0.087,west-northwest,5.9,No
2019/12/08,13:50,0.182,0.164,0.278,0.259,0.255,0.140,0.087,northwest,8.1,No
2019/12/08,14:00,0.184,0.164,0.280,0.260,0.254,0.141,0.086,northwest,8.5,No
2019/12/08,14:10,0.183,0.165,0.279,0.258,0.254,0.140,0.086,northwest,8.1,No
2019/12/08,14:20,0.184,0.165,0.279,0.260,0.254,0.141,0.086,northwest,9.0,No
2019/12/08,14:30,0.183,0.165,0.280,0.260,0.256,0.139,0.087,northwest,6.8,No
2019/12/08,14:40,0.183,0.164,0.280,0.260,0.255,0.141,0.087,northwest,5.9,No
2019/12/08,14:50,0.183,0.166,0.279,0.261,0.255,0.140,0.087,northwest,6.2,No
2019/12/08,15:00,0.183,0.166,0.280,0.260,0.257,0.141,0.086,west,3.9,No
2019/12/08,15:10,0.183,0.166,0.281,0.260,0.256,0.141,0.087,west,5.8,No
2019/12/08,15:20,0.184,0.165,0.279,0.262,0.256,0.141,0.086,west,6.5,No
2019/12/08,15:30,0.184,0.166,0.278,0.260,0.256,0.141,0.087,west,5.1,No
2019/12/08,15:40,0.183,0.165,0.280,0.260,0.254,0.141,0.086,west-northwest,5.9,No
2019/12/08,15:50,0.182,0.165,0.279,0.261,0.255,0.142,0.087,west-northwest,6.1,No
2019/12/08,16:00,0.184,0.166,0.279,0.260,0.256,0.142,0.086,west-northwest,5.9,No
2019/12/08,16:10,0.183,0.166,0.281,0.260,0.255,0.141,0.087,west-northwest,6.1,No
2019/12/08,16:20,0.183,0.166,0.280,0.261,0.255,0.141,0.086,west-northwest,5.3,No
2019/12/08,16:30,0.184,0.167,0.279,0.260,0.256,0.142,0.087,west-northwest,5.3,No
2019/12/08,16:40,0.184,0.165,0.280,0.261,0.256,0.142,0.086,northwest,5.2,No
2019/12/08,16:50,0.183,0.166,0.280,0.260,0.255,0.142,0.087,west-northwest,6.0,No
2019/12/08,17:00,0.183,0.166,0.280,0.261,0.255,0.141,0.087,northwest,5.6,No
2019/12/08,17:10,0.183,0.166,0.280,0.261,0.255,0.141,0.087,west-northwest,5.7,No
2019/12/08,17:20,0.183,0.166,0.278,0.260,0.255,0.141,0.086,northwest,6.8,No
2019/12/08,17:30,0.184,0.166,0.280,0.262,0.255,0.141,0.087,west-northwest,6.4,No
2019/12/08,17:40,0.184,0.166,0.280,0.260,0.255,0.141,0.087,northwest,6.6,No
2019/12/08,17:50,0.185,0.165,0.279,0.261,0.256,0.142,0.087,northwest,7.0,No
2019/12/08,18:00,0.184,0.166,0.280,0.260,0.256,0.140,0.086,west-northwest,6.4,No
2019/12/08,18:10,0.183,0.166,0.279,0.261,0.254,0.140,0.087,west-northwest,4.8,No
2019/12/08,18:20,0.182,0.164,0.282,0.261,0.256,0.141,0.087,northwest,3.0,No
2019/12/08,18:30,0.184,0.165,0.279,0.260,0.255,0.140,0.087,northwest,5.4,No
2019/12/08,18:40,0.184,0.166,0.279,0.261,0.255,0.140,0.088,north-northwest,4.4,No
2019/12/08,18:50,0.184,0.166,0.280,0.261,0.256,0.140,0.087,northwest,5.5,No
2019/12/08,19:00,0.183,0.166,0.279,0.261,0.255,0.141,0.086,northwest,4.5,No
2019/12/08,19:10,0.184,0.166,0.280,0.261,0.256,0.140,0.086,northwest,4.7,No
2019/12/08,19:20,0.183,0.166,0.280,0.259,0.254,0.141,0.087,northwest,4.4,No
2019/12/08,19:30,0.184,0.166,0.280,0.260,0.254,0.141,0.086,northwest,5.1,No
2019/12/08,19:40,0.183,0.165,0.281,0.260,0.254,0.142,0.087,northwest,4.5,No
2019/12/08,19:50,0.183,0.165,0.280,0.261,0.255,0.140,0.087,west-northwest,4.8,No
2019/12/08,20:00,0.182,0.165,0.279,0.260,0.257,0.140,0.086,northwest,4.5,No
2019/12/08,20:10,0.184,0.166,0.279,0.260,0.255,0.141,0.088,northwest,6.2,No
2019/12/08,20:20,0.183,0.165,0.280,0.262,0.255,0.142,0.087,northwest,5.8,No
2019/12/08,20:30,0.183,0.166,0.281,0.261,0.256,0.140,0.086,northwest,5.9,No
2019/12/08,20:40,0.184,0.165,0.280,0.259,0.257,0.141,0.087,northwest,7.3,No
2019/12/08,20:50,0.183,0.165,0.280,0.261,0.256,0.141,0.086,northwest,7.3,No
2019/12/08,21:00,0.185,0.165,0.279,0.262,0.255,0.141,0.087,northwest,7.1,No
2019/12/08,21:10,0.185,0.165,0.280,0.261,0.255,0.141,0.086,northwest,8.1,No
2019/12/08,21:20,0.184,0.166,0.280,0.260,0.256,0.141,0.087,northwest,8.4,No
2019/12/08,21:30,0.182,0.165,0.279,0.261,0.254,0.141,0.087,northwest,6.5,No
2019/12/08,21:40,0.184,0.165,0.279,0.260,0.255,0.141,0.087,northwest,4.8,No
2019/12/08,21:50,0.183,0.166,0.280,0.261,0.256,0.141,0.087,northwest,6.0,No
2019/12/08,22:00,0.183,0.165,0.280,0.260,0.256,0.142,0.086,west-northwest,7.3,No
2019/12/08,22:10,0.183,0.166,0.279,0.260,0.255,0.141,0.087,west-northwest,6.1,No
2019/12/08,22:20,0.183,0.165,0.279,0.261,0.255,0.141,0.086,west-northwest,6.5,No
2019/12/08,22:30,0.184,0.165,0.279,0.260,0.255,0.141,0.087,west-northwest,6.3,No
2019/12/08,22:40,0.183,0.166,0.281,0.260,0.255,0.141,0.086,west-northwest,6.8,No
2019/12/08,22:50,0.183,0.166,0.280,0.260,0.256,0.142,0.086,west-northwest,7.9,No
2019/12/08,23:00,0.182,0.165,0.280,0.260,0.256,0.140,0.086,west-northwest,6.0,No
2019/12/08,23:10,0.184,0.165,0.280,0.260,0.256,0.142,0.087,northwest,5.1,No
2019/12/08,23:20,0.184,0.166,0.279,0.261,0.253,0.141,0.087,west-northwest,5.2,No
2019/12/08,23:30,0.183,0.165,0.280,0.261,0.255,0.142,0.087,west-northwest,4.2,No
2019/12/08,23:40,0.183,0.165,0.280,0.261,0.254,0.141,0.087,west-northwest,4.9,No
2019/12/08,23:50,0.183,0.165,0.280,0.260,0.255,0.140,0.087,west-northwest,4.7,No
